Location: Canazei
(46.4667°N, 11.7667°E)
Time: 07:32:04
(UTC+00:00)

Meteor 1-11 Rocket - Pass Details

Date: 21 April 2021
Orbit: 832 x 915 km, 81.2° (Epoch: 05 May)

Event Time Altitude Azimuth Distance (km) Brightness Sun altitude
Rises 00:09:16 0° 345° (NNW) 3,523 7.7 -30.3°
Reaches altitude 10° 00:11:45 10° 341° (NNW) 2,588 6.8 -30.1°
Enters shadow 00:16:36 51° 299° (WNW) 1,137 4.3 -29.9°
